Portada
METAR-TAF:

METAR-TAF

Aeropuertos :

Carroll, Iowa, Estados Unidos

latitud: 42-03N, longitud: 094-47W, altitud: 375 m

Observación

El informe se hizo hace 21 minutos, a las 02:35 UTC
Viento 5 kt del sur
Temperatura 13°C
Humedad 67%
Presión 1014 hPa
Visibilidad: 14.5 km
Cielo despejado

METAR: KCIN 240235Z AUTO 19005KT 9SM CLR 13/07 A2994 RMK AO2

Hora: 21:56 (02:56 UTC)


TAF: falta

Observaciones y pronósticos meteorológicos de más de 4000 aeropuertos (mensajes METAR y TAF).

Los puntos amarillos y rojos representan las estaciones disponibles.

Ponga el ratón en el punto deseado para ver el nombre de la estación.

Haga clic para ver las observaciones y los pronósticos meteorológicos.

Para cambiar el mapa : haga clic en los botones verdes con una cruz de color negro para hacer un zoom, en el botón verde con un guión para alejar o en las flechas verdes para mapas adyacentes.


METAR-TAF: